This is the latest recevied weather packets stored in our database for station/object K4GDX. If no packets are shown the sender has not sent any weather packets the latest 10 day(s).
| Time | Temp. | Humidity | Pressure | Rain* | Wind** | Luminosity | Snow |
|---|---|---|---|---|---|---|---|
| 1777567442 | 30.56° C | 60% | 1009.6 hPa | 0 mm | - | 350 W/m² | - |
| 1777567142 | 30.56° C | 61% | 1009.9 hPa | 0 mm | - | 1028 W/m² | - |
| 1777566844 | 30° C | 61% | 1010 hPa | 0 mm | - | 1051 W/m² | - |
| 1777566542 | 30° C | 62% | 1010.1 hPa | 0 mm | - | 297 W/m² | - |
| 1777566241 | 30° C | 63% | 1010.1 hPa | 0 mm | - | 991 W/m² | - |
| 1777565942 | 30° C | 63% | 1010.1 hPa | 0 mm | - | 988 W/m² | - |
| 1777565647 | 29.44° C | 64% | 1010.1 hPa | 0 mm | - | 958 W/m² | - |
| 1777565343 | 29.44° C | 65% | 1010.3 hPa | 0 mm | - | 949 W/m² | - |
| 1777565042 | 29.44° C | 64% | 1010.3 hPa | 0 mm | - | 935 W/m² | - |
| 1777564742 | 29.44° C | 63% | 1010.4 hPa | 0 mm | - | 933 W/m² | - |
| 1777564442 | 29.44° C | 63% | 1010.3 hPa | 0 mm | - | 902 W/m² | - |
| 1777564140 | 29.44° C | 66% | 1010.4 hPa | 0 mm | - | 895 W/m² | - |
| 1777563841 | 28.89° C | 65% | 1010.5 hPa | 0 mm | - | 886 W/m² | - |
| 1777563539 | 28.33° C | 67% | 1010.4 hPa | 0 mm | - | 541 W/m² | - |
| 1777563236 | 28.33° C | 68% | 1010.6 hPa | 0 mm | - | 649 W/m² | - |
| 1777562937 | 28.33° C | 69% | 1010.6 hPa | 0 mm | - | 578 W/m² | - |
| 1777562629 | 28.33° C | 69% | 1010.5 hPa | 0 mm | - | 629 W/m² | - |
| 1777562330 | 28.33° C | 69% | 1010.4 hPa | 0 mm | - | 969 W/m² | - |
| 1777562029 | 27.78° C | 71% | 1010.5 hPa | 0 mm | - | 851 W/m² | - |
| 1777561731 | 27.22° C | 71% | 1010.4 hPa | 0 mm | - | 809 W/m² | - |
| 1777561427 | 27.22° C | 72% | 1010.3 hPa | 0 mm | - | 663 W/m² | - |
| 1777561125 | 26.67° C | 75% | 1010.3 hPa | 0 mm | - | 793 W/m² | - |
| 1777560826 | 26.11° C | 75% | 1010.1 hPa | 0 mm | - | 765 W/m² | - |
| 1777560524 | 26.11° C | 76% | 1010.2 hPa | 0 mm | - | 584 W/m² | - |
| 1777560227 | 26.11° C | 76% | 1010.5 hPa | 0 mm | - | 313 W/m² | - |
* Rain latest hour (hover to see other rain measurements)
** Current wind speed in m/s (hover to see current wind gust speed)